User: anonymous   Login
Location: ??????
(55.6130°N, 37.7882°E)
Time: 19:35:35
(UTC+00:00)
Language:

Cosmos 1805 - Orbit

View from above orbital plane
View from above orbital plane
View from above satellite
View from above satellite

Ground track
Ground track

The orbit data is extracted from the following two-line orbital elements,

1 17191U 86097A   24165.59455155  .00008168  00000-0  32524-3 0  9998
2 17191  82.4708  24.5343 0001743 243.0545 117.0514 15.25094313 49778
Epoch (UTC): 13 June 2024 14:16:09
Eccentricity: 0.0001743
inclination: 82.4708°
perigee height: 489 km
apogee height: 492 km
right ascension of ascending node: 24.5343°
argument of perigee: 243.0545°
revolutions per day: 15.25094313
mean anomaly at epoch: 117.0514°
orbit number at epoch: 4977

The dashed part of the orbit path shows where the satellite is in the earth's shadow,  

DLR